Hourly Data Report for September 29, 2017

All times are specified in Local Standard Time (LST). Add 1 hour to adjust for Daylight Saving Time where and when it is observed.

QIKIQTARJUAQ A
NUNAVUT

67°32'48.000" N
64°01'54.000" W
5.50 m
2400577
YVM

Download Data

Hourly Data (September 2017)
Hourly Data Report for September 29, 2017
Temp Definition
°C
Dew Point Temp Definition
°C
Rel Hum Definition
%
Wind Dir Definition
10's deg

Wind Spd Definition
km/h
Visibility Definition
km
Stn Press Definition
kPa
Hmdx Definition


Wind Chill Definition


Weather Definition


TIME
00:00 Legend Double Dagger -2.9 -3.9 93 15 5 16.1 100.39   -5 LegendNANA
01:00 Legend Double Dagger -1.2 -2.6 90   0 16.1 100.40     LegendNANA
02:00 Legend Double Dagger -0.2 -1.7 90 5 5 16.1 100.40   -2 LegendNANA
03:00 Legend Double Dagger 0.1 -0.7 94 1 35 11.3 100.41     Rain
04:00 Legend Double Dagger -0.7 -1.4 95 1 30 8.1 100.45   -7 Snow
05:00 Legend Double Dagger -1.3 -2.1 94 2 28 4.8 100.50   -8 Snow
06:00 Legend Double Dagger -1.7 -2.4 95 3 34 2.0 100.52   -9 Snow
07:00 Legend Double Dagger -1.7 -3.2 90 2 34 4.8 100.55   -9 Snow
08:00 Legend Double Dagger -1.7 -3.9 85 2 28 9.7 100.56   -8 Snow
09:00 Legend Double Dagger -0.9 -6.3 67 36 34 16.1 100.51   -8 LegendNANA
10:00 Legend Double Dagger -0.9 -5.2 73 35 26 16.1 100.51   -7 LegendNANA
11:00 Legend Double Dagger -1.3 -5.8 71 36 32 16.1 100.53   -8 LegendNANA
12:00 Legend Double Dagger -1.2 -7.1 64 36 24 16.1 100.54   -7 LegendNANA
13:00 Legend Double Dagger -1.3 -8.1 60 32 13 16.1 100.53   -6 LegendNANA
14:00 Legend Double Dagger -1.4 -7.8 62 32 8 16.1 100.53   -4 LegendNANA
15:00 Legend Double Dagger -1.6 -7.9 62 32 9 16.1 100.53   -5 LegendNANA
16:00 Legend Double Dagger -2.8 -7.1 72 16 5 16.1 100.53   -5 LegendNANA
17:00 Legend Double Dagger -2.6 -7.1 72 LegendMM 4 16.1 100.53   -4 LegendNANA
18:00 Legend Double Dagger -1.6 -10.4 51 30 13 16.1 100.51   -6 LegendNANA
19:00 Legend Double Dagger -1.6 -10.6 51 32 11 16.1 100.47   -5 LegendNANA
20:00 Legend Double Dagger -1.9 -9.1 58 30 11 16.1 100.45   -6 LegendNANA
21:00 Legend Double Dagger -2.1 -9.3 58 25 8 16.1 100.43   -5 LegendNANA
22:00 Legend Double Dagger -3.0 -10.2 58 14 5 16.1 100.40   -5 LegendNANA
23:00 Legend Double Dagger -3.3 -9.0 65   0 16.1 100.34     LegendNANA

Notes on Data Quality.

Legend

  • E = Estimated
  • M = Missing
  • NA = Not Available
  • ‡ = Partner data that is not subject to review by the National Climate Archives
Date modified: